Regional Weather Roundup
Issued by NWS State College, PA

Home | Current Version | Previous Version | Graphics & Text | Print | Product List | Glossary Off
Versions: 1 2 3 4 5 6 7 8 9 10 11 12 13 14 15 16 17 18 19 20 21 22 23 24 25 26 27 28 29 30 31 32 33 34 35 36 37 38 39 40 41 42 43 44 45 46 47 48 49 50

000
ASUS41 KCTP 102103
RWRCTP

REGIONAL WEATHER ROUNDUP
NATIONAL WEATHER SERVICE STATE COLLEGE PA
500 PM EDT THU JUL 10 2014

Note: "fair" indicates few or no clouds below 12,000 feet with no
significant weather and/or obstructions to visibility.

* = STATION THAT DOES NOT REPORT PRECIPITATION /E.G. RAIN...SNOW...ETC/
    THUNDER OR FOG.

PAZ002>004-007>009-013>016-020>023-029>032-102200-
WESTERN PENNSYLVANIA

CITY           SKY/WX    TMP DP  RH WIND       PRES   REMARKS
ERIE           PTSUNNY   72  51  47 NE14      30.15F
MEADVILLE      PTSUNNY   77  53  43 NE5       30.14F
FRANKLIN*      MOSUNNY   77  55  47 N9        30.14F
NEW CASTLE     NOT AVBL
BEAVER COUNTY  MOSUNNY   81  55  41 N3        30.12F
BUTLER*        SUNNY     79  57  47 CALM      30.13F
PITTSBURGH INT PTSUNNY   81  57  43 NE6       30.10F
PITTSBURGH     PTSUNNY   81  55  40 NW8       30.09F
INDIANA*       PTSUNNY   81  57  44 VRB3      30.15S
LATROBE        MOSUNNY   81  61  50 N6        30.11S
WASHINGTON CO* MOSUNNY   81  59  47 CALM      30.10F
$$

PAZ004>006-010>012-017>019-024>028-033>037-041-042-045-046-049>053-102200-
CENTRAL PENNSYLVANIA

CITY           SKY/WX    TMP DP  RH WIND       PRES   REMARKS
BRADFORD       PTSUNNY   72  52  49 E6        30.16F
DUBOIS         MOSUNNY   78  54  43 NW7       30.13F
CLEARFIELD     CLOUDY    79  56  45 CALM      30.12F
JOHNSTOWN      MOSUNNY   77  58  51 VRB7      30.13F
ALTOONA        PTSUNNY   74  62  66 CALM      30.12F
STATE COLLEGE  CLOUDY    73  63  68 E5        30.12R
WILLIAMSPORT   CLOUDY    78  58  49 N5        30.09F
SELINSGROVE    PTSUNNY   80  63  55 NE6       30.09S
FT INDIANTOWN  PTSUNNY   84  60  44 N5        30.07F
CAPITAL CITY   MOSUNNY   83  59  44 E5        30.05F
HARRISBURG     PTSUNNY   86  60  41 CALM      30.04F
YORK           CLOUDY    85  60  42 E8        30.05F
$$

PAZ038>040-043-044-047-048-054-055-060>062-067>071-102200-
EASTERN PENNSYLVANIA

CITY           SKY/WX    TMP DP  RH WIND       PRES   REMARKS
SCRANTON       PTSUNNY   78  56  46 N6        30.12S
MOUNT POCONO   RAIN      65  61  87 NE7       30.17S FOG
ALLENTOWN      CLOUDY    79  63  57 NE5       30.08F
QUAKERTOWN*    PTCLDY    82  63  51 S3        30.09F
READING        PTSUNNY   83  60  45 CALM      30.06F
LANCASTER      MOSUNNY   84  61  45 MISG      30.06F
COATESVILLE    PTCLDY    82  59  44 SE6       30.08F
POTTSTOWN      MOSUNNY   81  59  47 CALM      30.08F
BLUE BELL      SUNNY     86  61  42 SE6       30.06F
DOYLESTOWN     SUNNY     81  62  52 CALM      30.07F
WILLOW GROVE   NOT AVBL
NORTH PHILA    SUNNY     85  58  39 E9        30.08S
PHILADELPHIA   MOSUNNY   86  61  42 NE9       30.06F
$$



USA.gov is the U.S. government's official web portal to all federal, state and local government web resources and services.